This demonstration page uses our WeatherBlox Daily Observations layout. Learn more.

Left ArrowRight Arrow

Hourly Observations for April 12, 2017

Temp ( °F °C ) Dew Point ( °F °C ) Humidity (%) Winds ( mph kmh ) Pressure ( in mb ) Visibility ( mi km ) Precip ( " mm )
12:53 am 00:53 Mostly Clear 54 12.2 50 10 87 87 S 8 13 29.91 1013 10 16 0.00 0.00
1:50 am 01:50 Cloudy 54 12 50 10 88 88 SW 6 9 29.94 1014 10 16 0.00 0.00
1:53 am 01:53 Cloudy 54 12.2 50 10 87 87 WSW 5 7 29.91 1013 10 16 0.00 0.00
2:05 am 02:05 Mostly Cloudy 54 12.2 50 10 87 87 W 6 9 29.94 1014 10 16 0.00 0.00
2:18 am 02:18 Mostly Cloudy 54 12 50 10 88 88 W 6 9 29.94 1014 10 16 0.00 0.00
2:25 am 02:25 Mostly Cloudy 53 11.7 50 10 89 89 W 6 9 29.94 1014 10 16 0.00 0.00
2:34 am 02:34 Mostly Cloudy 54 12 50 10 88 88 W 6 9 29.94 1014 10 16 0.00 0.00
2:45 am 02:45 Partly Cloudy 52 11.1 50 10 93 93 W 6 9 29.94 1014 10 16 0.00 0.00
2:53 am 02:53 Mostly Cloudy 53 11.7 50 10 89 89 W 6 9 29.90 1013 10 16 0.00 0.00
3:23 am 03:23 Cloudy 53 11.7 50 10 89 89 WSW 6 9 29.94 1014 10 16 0.00 0.00
3:37 am 03:37 Cloudy 54 12.2 51 10.6 90 90 WSW 6 9 29.94 1014 10 16 0.00 0.00
3:53 am 03:53 Cloudy 54 12.2 51 10.6 90 90 SW 7 11 29.90 1012 10 16 0.00 0.00
4:53 am 04:53 Cloudy 54 12.2 51 10.6 90 90 SW 6 9 29.89 1012 10 16 0.00 0.00
5:10 am 05:10 Cloudy 54 12 52 11 94 94 W 7 11 29.91 1013 10 16 0.00 0.00
5:53 am 05:53 Cloudy 54 12.2 52 11.1 93 93 SW 6 9 29.88 1012 10 16 0.00 0.00
6:42 am 06:42 Cloudy 54 12 52 11 94 94 SW 7 11 29.91 1013 10 16 0.00 0.00
6:53 am 06:53 Cloudy 54 12.2 52 11.1 93 93 SSW 7 11 29.88 1012 10 16 0.00 0.00
7:31 am 07:31 Cloudy 55 12.8 52 11.1 90 90 SSW 8 13 29.91 1013 10 16 0.00 0.00
7:53 am 07:53 Cloudy 56 13.3 52 11.1 87 87 SSW 8 13 29.89 1012 10 16 0.00 0.00
8:53 am 08:53 Cloudy 56 13.3 52 11.1 87 87 S 9 15 29.88 1012 10 16 0.00 0.00
9:53 am 09:53 Mostly Cloudy 58 14.4 52 11.1 81 81 S 14 22 29.86 1011 10 16 0.00 0.00
10:53 am 10:53 Cloudy 59 15 51 10.6 75 75 S 17 28 29.85 1011 10 16 0.00 0.00
11:53 am 11:53 Cloudy with Light Rain 57 13.9 53 11.7 87 87 S 18 30 29.83 1010 10 16 0.00 0.03
12:53 pm 12:53 Cloudy 58 14.4 54 12.2 87 87 S 17 28 29.82 1010 10 16 0.02 0.51
1:48 pm 13:48 Cloudy 57 14 54 12 88 88 S 14 22 29.80 1009 10 16 0.00 0.00
1:53 pm 13:53 Mostly Cloudy 58 14.4 54 12.2 87 87 S 13 20 29.80 1009 10 16 0.00 0.00
2:53 pm 14:53 Mostly Cloudy 58 14.4 53 11.7 84 84 SSE 25 41 29.78 1009 10 16 0.00 0.00
3:53 pm 15:53 Cloudy 59 15 52 11.1 78 78 S 30 48 29.76 1008 10 16 0.00 0.00
4:53 pm 16:53 Cloudy 58 14.4 52 11.1 81 81 SSE 22 35 29.75 1008 10 16 0.00 0.03
5:53 pm 17:53 Mostly Cloudy 58 14.4 51 10.6 78 78 S 20 31 29.74 1007 10 16 0.00 0.00
6:53 pm 18:53 Cloudy 58 14.4 49 9.4 72 72 S 24 39 29.72 1007 10 16 0.00 0.00
7:53 pm 19:53 Cloudy 57 13.9 49 9.4 74 74 S 23 37 29.73 1007 10 16 0.00 0.00
8:53 pm 20:53 Cloudy with Rain 51 10.6 46 7.8 83 83 SW 10 17 29.77 1008 4 6 0.03 0.76
9:06 pm 21:06 Cloudy with Heavy Rain 48 9 46 8 94 94 WSW 10 17 29.83 1010 3 4 0.00 0.00
9:19 pm 21:19 Cloudy with Rain 49 9.4 46 7.8 90 90 WSW 13 20 29.83 1010 4 6 0.15 3.81
9:53 pm 21:53 Cloudy with Light Rain 49 9.4 47 8.3 93 93 VRB 3 6 29.80 1009 5 8 0.26 6.60
10:53 pm 22:53 Cloudy 49 9.4 48 8.9 97 97 ENE 6 9 29.82 1010 10 16 0.01 0.25
11:04 pm 23:04 Cloudy 48 9 46 8 94 94 ENE 7 11 29.85 1011 10 16 0.00 0.00
11:53 pm 23:53 Cloudy 49 9.4 47 8.3 93 93 NNE 5 7 29.80 1009 10 16 0.00 0.00

Powered by AerisWeather